Location: Helsinki
(60.1699°N, 24.9384°E)
Time: 23:59:20
(UTC+02:00)

A-11 Canister half - Pass Details

Date: 01 November 2020
Orbit: 1516 x 1684 km, 47.2° (Epoch: 26 November)

Event Time Altitude Azimuth Distance (km) Brightness Sun altitude
Rises 19:07:13 0° 204° (SSW) 4,930 11.9 -20.6°
Reaches altitude 10° 19:11:12 10° 192° (SSW) 3,940 11.2 -21.1°
Maximum altitude 19:18:36 24° 144° (SE) 2,967 10.1 -22.0°
Enters shadow 19:19:39 23° 135° (SE) 2,986 10.0 -22.1°
Drops below altitude 10° 19:25:54 10° 97° (E) 3,890 - -22.9°
Sets 19:29:46 0° 84° (E) 4,854 - -23.4°
